| time (UTC) | temp F | wind direction | speed knots | gust knots | rain 1hr in | rain 24hr in | rain mn in | humidity % | barometer mb |
| 20260510203045 | 76 | 11 | 5.2 | 13.0 | 0.00 | 0.00 | 0.00 | 55 | 1019.4 |
| 20260510201543 | 76 | 38 | 3.5 | 14.8 | 0.00 | 0.00 | 0.00 | 54 | 1019.5 |
| 20260510200043 | 77 | 360 | 6.1 | 15.6 | 0.00 | 0.00 | 0.00 | 54 | 1019.2 |
| 20260510194542 | 77 | 47 | 3.5 | 11.3 | 0.00 | 0.00 | 0.00 | 55 | 1019.2 |
| 20260510193040 | 76 | 36 | 4.3 | 12.2 | 0.00 | 0.00 | 0.00 | 57 | 1019.4 |
| 20260510191546 | 77 | 49 | 4.3 | 12.2 | 0.00 | 0.00 | 0.00 | 57 | 1019.3 |
| 20260510190038 | 76 | 45 | 7.0 | 13.9 | 0.00 | 0.00 | 0.00 | 58 | 1019.2 |
| 20260510184538 | 76 | 44 | 4.3 | 14.8 | 0.00 | 0.00 | 0.00 | 59 | 1019.2 |
| 20260510183035 | 77 | 344 | 12.2 | 16.5 | 0.00 | 0.00 | 0.00 | 58 | 1019.1 |
| 20260510181532 | 76 | 24 | 7.0 | 12.2 | 0.00 | 0.00 | 0.00 | 62 | 1019.0 |
| 20260510180033 | 75 | 52 | 2.6 | 11.3 | 0.00 | 0.00 | 0.00 | 64 | 1019.1 |
| 20260510174532 | 76 | 355 | 4.3 | 11.3 | 0.00 | 0.00 | 0.00 | 65 | 1019.0 |
| 20260510173030 | 76 | 31 | 3.5 | 9.6 | 0.00 | 0.00 | 0.00 | 66 | 1019.3 |
| 20260510171530 | 76 | 49 | 3.5 | 12.2 | 0.00 | 0.00 | 0.00 | 65 | 1019.3 |
| 20260510170028 | 76 | 45 | 6.1 | 11.3 | 0.00 | 0.00 | 0.00 | 65 | 1019.3 |
| 20260510164527 | 76 | 50 | 2.6 | 9.6 | 0.00 | 0.00 | 0.00 | 64 | 1019.4 |
| 20260510163025 | 75 | 36 | 2.6 | 13.0 | 0.00 | 0.00 | 0.00 | 64 | 1019.6 |
| 20260510161523 | 74 | 50 | 2.6 | 7.0 | 0.00 | 0.00 | 0.00 | 64 | 1019.5 |
| 20260510160021 | 74 | 57 | 1.7 | 11.3 | 0.00 | 0.00 | 0.00 | 66 | 1019.4 |
| 20260510154521 | 74 | 47 | 3.5 | 9.6 | 0.00 | 0.00 | 0.00 | 62 | 1019.2 |
| 20260510153020 | 75 | 40 | 1.7 | 9.6 | 0.00 | 0.00 | 0.00 | 63 | 1019.0 |
| 20260510151515 | 74 | 355 | 1.7 | 5.2 | 0.00 | 0.00 | 0.00 | 65 | 1018.9 |
| 20260510150014 | 73 | 338 | 3.5 | 5.2 | 0.00 | 0.00 | 0.00 | 64 | 1018.7 |
| 20260510144518 | 74 | 290 | 2.6 | 4.3 | 0.00 | 0.00 | 0.00 | 63 | 1018.5 |
| 20260510143010 | 73 | 154 | 0.0 | 1.7 | 0.00 | 0.00 | 0.00 | 67 | 1018.4 |
| 20260510141505 | 71 | 154 | 0.9 | 2.6 | 0.00 | 0.00 | 0.00 | 69 | 1018.2 |
| 20260510140002 | 70 | 162 | 1.7 | 4.3 | 0.00 | 0.00 | 0.00 | 72 | 1018.1 |
| 20260510134606 | 69 | 168 | 2.6 | 4.3 | 0.00 | 0.00 | 0.00 | 74 | 1018.3 |
| 20260510133056 | 68 | 163 | 0.9 | 3.5 | 0.00 | 0.00 | 0.00 | 76 | 1018.1 |
| 20260510131553 | 66 | 162 | 0.0 | 0.9 | 0.00 | 0.00 | 0.00 | 79 | 1018.1 |
| 20260510130050 | 65 | 162 | 0.0 | 4.3 | 0.00 | 0.00 | 0.00 | 83 | 1018.0 |
| 20260510124549 | 63 | 161 | 0.0 | 1.7 | 0.00 | 0.00 | 0.00 | 86 | 1018.0 |
| 20260510123049 | 61 | 161 | 0.0 | 1.7 | 0.00 | 0.00 | 0.00 | 88 | 1018.1 |
| 20260510121547 | 60 | 161 | 0.0 | 1.7 | 0.00 | 0.00 | 0.00 | 88 | 1018.0 |
| 20260510120046 | 59 | 161 | 0.0 | 0.0 | 0.00 | 0.00 | 0.00 | 87 | 1018.3 |
| 20260510114545 | 59 | 161 | 0.0 | 0.0 | 0.00 | 0.00 | 0.00 | 87 | 1017.9 |
| 20260510113044 | 58 | 161 | 0.0 | 1.7 | 0.00 | 0.00 | 0.00 | 87 | 1017.7 |
| 20260510111603 | 58 | 161 | 0.9 | 3.5 | 0.00 | 0.00 | 0.00 | 87 | 1017.3 |
| 20260510110039 | 58 | 102 | 0.9 | 1.7 | 0.00 | 0.00 | 0.00 | 86 | 1017.0 |
| 20260510104538 | 59 | 93 | 0.0 | 1.7 | 0.00 | 0.00 | 0.00 | 84 | 1016.6 |
| 20260510103036 | 59 | 92 | 0.9 | 3.5 | 0.00 | 0.00 | 0.00 | 84 | 1016.7 |
| 20260510101534 | 59 | 49 | 1.7 | 5.2 | 0.00 | 0.00 | 0.00 | 84 | 1016.6 |
| 20260510100031 | 60 | 84 | 0.9 | 3.5 | 0.00 | 0.00 | 0.00 | 83 | 1016.6 |
| 20260510094528 | 60 | 140 | 0.9 | 2.6 | 0.00 | 0.00 | 0.00 | 82 | 1016.4 |
| 20260510093042 | 61 | 180 | 0.0 | 0.0 | 0.00 | 0.00 | 0.00 | 81 | 1015.8 |
| 20260510091525 | 61 | 180 | 0.9 | 2.6 | 0.00 | 0.00 | 0.00 | 81 | 1015.8 |
| 20260510090035 | 61 | 175 | 1.7 | 2.6 | 0.00 | 0.00 | 0.00 | 80 | 1015.5 |
| 20260510084522 | 62 | 175 | 0.0 | 1.7 | 0.00 | 0.00 | 0.00 | 79 | 1015.1 |
| 20260510083018 | 62 | 175 | 0.9 | 2.6 | 0.00 | 0.00 | 0.00 | 78 | 1015.1 |
| 20260510081517 | 62 | 174 | 0.9 | 3.5 | 0.00 | 0.00 | 0.00 | 77 | 1015.0 |
| 20260510080016 | 62 | 186 | 0.9 | 4.3 | 0.00 | 0.00 | 0.00 | 78 | 1015.0 |
| 20260510074516 | 62 | 209 | 2.6 | 4.3 | 0.00 | 0.00 | 0.00 | 79 | 1014.9 |
| 20260510073011 | 63 | 207 | 1.7 | 5.2 | 0.00 | 0.00 | 0.00 | 76 | 1014.9 |
| 20260510071510 | 63 | 197 | 2.6 | 4.3 | 0.00 | 0.00 | 0.00 | 76 | 1014.9 |
| 20260510070008 | 63 | 209 | 2.6 | 4.3 | 0.00 | 0.00 | 0.00 | 75 | 1014.9 |
| 20260510064507 | 64 | 221 | 3.5 | 4.3 | 0.00 | 0.00 | 0.00 | 75 | 1015.2 |
| 20260510063005 | 64 | 221 | 2.6 | 4.3 | 0.00 | 0.00 | 0.00 | 73 | 1015.2 |
| 20260510061501 | 65 | 221 | 2.6 | 4.3 | 0.00 | 0.00 | 0.00 | 71 | 1015.1 |
| 20260510060059 | 66 | 221 | 3.5 | 4.3 | 0.00 | 0.00 | 0.00 | 70 | 1015.2 |
| 20260510054558 | 66 | 223 | 5.2 | 6.1 | 0.00 | 0.00 | 0.00 | 69 | 1015.0 |
| 20260510053057 | 66 | 207 | 3.5 | 5.2 | 0.00 | 0.00 | 0.00 | 70 | 1015.0 |
| 20260510051558 | 66 | 213 | 3.5 | 5.2 | 0.00 | 0.00 | 0.00 | 70 | 1014.9 |
| 20260510050056 | 66 | 209 | 3.5 | 6.1 | 0.00 | 0.00 | 0.00 | 68 | 1014.7 |
| 20260510044614 | 66 | 209 | 3.5 | 6.1 | 0.00 | 0.00 | 0.00 | 68 | 1014.6 |
| 20260510043051 | 66 | 213 | 4.3 | 6.1 | 0.00 | 0.00 | 0.00 | 68 | 1014.7 |
| 20260510041552 | 67 | 210 | 4.3 | 6.1 | 0.00 | 0.00 | 0.00 | 64 | 1014.7 |
| 20260510040049 | 68 | 197 | 5.2 | 7.0 | 0.00 | 0.00 | 0.00 | 59 | 1014.7 |
| 20260510034549 | 68 | 184 | 3.5 | 5.2 | 0.00 | 0.00 | 0.00 | 60 | 1014.6 |
| 20260510033047 | 68 | 171 | 2.6 | 4.3 | 0.00 | 0.00 | 0.00 | 59 | 1014.6 |
| 20260510031546 | 68 | 192 | 4.3 | 6.1 | 0.00 | 0.00 | 0.00 | 62 | 1014.6 |
| 20260510030044 | 70 | 211 | 3.5 | 6.1 | 0.00 | 0.00 | 0.00 | 56 | 1014.3 |
| 20260510024543 | 71 | 198 | 4.3 | 6.1 | 0.00 | 0.00 | 0.00 | 54 | 1014.3 |
| 20260510023048 | 72 | 186 | 5.2 | 6.1 | 0.00 | 0.00 | 0.00 | 51 | 1014.2 |
| 20260510021542 | 73 | 180 | 3.5 | 6.1 | 0.00 | 0.00 | 0.00 | 51 | 1014.1 |
| 20260510020040 | 72 | 182 | 3.5 | 6.1 | 0.00 | 0.00 | 0.00 | 55 | 1013.8 |
| 20260510014540 | 72 | 205 | 2.6 | 4.3 | 0.00 | 0.00 | 0.00 | 59 | 1013.5 |
| 20260510013037 | 74 | 210 | 4.3 | 6.1 | 0.00 | 0.00 | 0.00 | 53 | 1013.4 |
| 20260510011538 | 74 | 211 | 3.5 | 5.2 | 0.00 | 0.00 | 0.00 | 53 | 1013.3 |
| 20260510010036 | 76 | 207 | 3.5 | 5.2 | 0.00 | 0.00 | 0.00 | 47 | 1013.0 |
| 20260510004536 | 77 | 218 | 3.5 | 4.3 | 0.00 | 0.00 | 0.00 | 49 | 1012.8 |
| 20260510003034 | 79 | 192 | 1.7 | 4.3 | 0.00 | 0.00 | 0.00 | 40 | 1012.7 |
| 20260510001533 | 81 | 180 | 1.7 | 4.3 | 0.00 | 0.00 | 0.00 | 38 | 1012.5 |
| 20260510000032 | 81 | 189 | 1.7 | 3.5 | 0.00 | 0.00 | 0.00 | 37 | 1012.6 |
| 20260509234531 | 82 | 155 | 1.7 | 5.2 | 0.00 | 0.00 | 0.00 | 35 | 1012.5 |
| 20260509233029 | 82 | 211 | 0.9 | 2.6 | 0.00 | 0.00 | 0.00 | 35 | 1012.4 |
| 20260509231531 | 82 | 216 | 3.5 | 7.8 | 0.00 | 0.00 | 0.00 | 34 | 1012.5 |
| 20260509230026 | 82 | 234 | 4.3 | 7.8 | 0.00 | 0.00 | 0.00 | 36 | 1012.4 |
| 20260509224529 | 82 | 360 | 3.5 | 5.2 | 0.00 | 0.00 | 0.00 | 35 | 1012.4 |
| 20260509223025 | 82 | 279 | 3.5 | 7.8 | 0.00 | 0.00 | 0.00 | 33 | 1012.3 |
| 20260509221526 | 82 | 171 | 1.7 | 7.8 | 0.00 | 0.00 | 0.00 | 35 | 1012.3 |
| 20260509220021 | 82 | 247 | 2.6 | 5.2 | 0.00 | 0.00 | 0.00 | 35 | 1012.3 |
| 20260509214520 | 82 | 232 | 6.1 | 10.4 | 0.00 | 0.00 | 0.00 | 34 | 1012.3 |
| 20260509213017 | 82 | 221 | 0.0 | 5.2 | 0.00 | 0.00 | 0.00 | 35 | 1012.3 |
| 20260509211517 | 82 | 360 | 4.3 | 7.0 | 0.00 | 0.00 | 0.00 | 35 | 1012.2 |
| 20260509210014 | 81 | 360 | 1.7 | 7.8 | 0.00 | 0.00 | 0.00 | 37 | 1012.1 |
| 20260509204513 | 81 | 292 | 6.1 | 9.6 | 0.00 | 0.00 | 0.00 | 40 | 1012.2 |